Location: Unspecified
(47.4992°N, 121.7766°W)
Time: 10:01:04
(UTC-08:00)

Resurs 1-4 Rocket - Visible Passes

Search period start: 23 February 2020 00:00
Search period end: 04 March 2020 00:00
Orbit: 800 x 813 km, 98.6° (Epoch: 22 February)

Date Brightness Start Highest point End Pass type
(mag) Time Alt. Az. Time Alt. Az. Time Alt. Az.
25 Feb 4.9 02:39:36 10° N 02:39:37 10° N 02:39:37 10° N visible
28 Feb 4.7 03:06:00 10° N 03:06:19 11° N 03:06:19 11° N visible
29 Feb 4.7 02:41:04 10° N 02:41:32 12° N 02:41:32 12° N visible
01 Mar 4.8 02:16:17 10° N 02:16:44 13° N 02:16:44 13° N visible
02 Mar 5.0 01:51:38 10° NNE 01:51:57 12° NNE 01:51:57 12° NNE visible
02 Mar 4.6 03:32:40 10° NNW 03:33:02 11° NNW 03:33:02 11° NNW visible
03 Mar 5.1 01:27:08 10° NNE 01:27:09 10° NNE 01:27:09 10° NNE visible
03 Mar 4.5 03:07:28 10° N 03:08:14 13° NNW 03:08:14 13° NNW visible
